[[{"header":{"parameterUnit":"m.s-1","parameterCategory":1,"la1":30.2991,"la2":30.254,"lo1":-89.0895,"lo2":-89.0444,"dy":0.0017,"dx":0.0017,"nx":28,"ny":28,"refTime":"2023-07-28T03:00:00:Z","depth":0,"parameterNumber":2,"parameterNumberName":"U-component_of_WINDS"},"data":[0,0,0,0,0,0,0,0,0,0,0,0,0,0,0,0,0,0,0,0,0,0,0,0,0,0,0,0,0,0,0,0,0,0,0,0,0,0,0,0,0,0,0,0,0,0,0,0,0,0,0,0,0,0,0,0,0,0,-0.1318,-0.1318,0,-0.1277,-0.1277,-0.1276,-0.1243,-0.1243,-0.1242,-0.1242,-0.12,-0.1199,-0.1199,0,0,0,0,0,0,0,0,0,0,0,0,0,-0.1368,-0.1368,-0.1319,-0.1318,-0.1318,-0.1277,-0.1277,-0.1276,-0.1243,-0.1243,-0.1242,-0.1242,-0.12,-0.1199,-0.1198,0,0,0,0,0,0,0,0,0,0,0,0,0,-0.1339,-0.1367,-0.1319,-0.1296,-0.1294,-0.1278,-0.1277,-0.1276,-0.1243,-0.1243,-0.1242,-0.1242,-0.1201,-0.12,-0.1198,-0.1202,0,0,-0.1195,-0.1194,0,0,0,0,0,0,0,0,-0.1341,-0.1337,-0.13,-0.1298,-0.1295,-0.1265,-0.1279,-0.1251,-0.1243,-0.1262,-0.1242,-0.1241,-0.1222,-0.1219,-0.1213,-0.12,-0.1198,-0.1195,-0.1194,-0.1193,-0.1193,0,0,0,0,0,0,0,-0.1343,-0.1339,-0.1302,-0.1299,-0.1296,-0.1288,-0.1283,-0.1274,-0.1246,-0.1261,-0.1258,-0.1254,-0.1221,-0.1214,-0.1211,-0.1197,-0.1195,-0.1194,-0.1193,-0.1192,-0.1185,-0.1185,0,0,0,0,0,0,-0.1348,-0.1341,-0.1304,-0.1301,-0.1317,-0.1288,-0.1282,-0.1275,-0.1246,-0.1241,-0.1254,-0.1252,-0.1216,-0.1213,-0.121,-0.1212,-0.1193,-0.1192,-0.1192,-0.1184,-0.1185,-0.1185,0,0,0,0,0,0,-0.1349,-0.1345,-0.1305,-0.132,-0.1314,-0.1287,-0.1279,-0.1274,-0.1268,-0.1241,-0.1236,-0.1252,-0.1215,-0.1211,-0.1204,-0.121,-0.1192,-0.1191,-0.1184,-0.1185,-0.1185,-0.1216,0,0,0,0,0,0,-0.1351,-0.1346,-0.1347,-0.132,-0.1314,-0.13,-0.128,-0.1274,-0.1266,-0.1263,-0.1238,-0.1233,-0.1215,-0.1206,-0.1203,-0.1208,-0.119,-0.1183,-0.1184,-0.1185,-0.1214,-0.1217,-0.122,0,0,0,0,0,-0.1353,-0.1357,-0.1347,-0.1343,-0.1314,-0.1301,-0.1297,-0.1276,-0.1266,-0.1267,-0.125,-0.1234,-0.121,-0.1205,-0.1201,-0.1206,-0.1183,-0.1184,-0.1185,-0.1213,-0.1217,-0.122,0,0,0,0,0,0,-0.1385,-0.1353,-0.1342,-0.1337,-0.1322,-0.1295,-0.1295,-0.1281,-0.1267,-0.1265,-0.124,-0.1234,-0.123,-0.1217,-0.1213,-0.1208,-0.1194,-0.1194,-0.1216,-0.122,-0.1223,-0.1226,-0.1189,0,0,0,0,0,-0.1392,-0.1383,-0.1356,-0.1355,-0.1347,-0.1323,-0.1316,-0.1301,-0.1284,-0.1277,-0.1259,-0.1243,-0.1232,-0.1225,-0.1213,-0.1212,-0.1206,-0.1213,-0.1216,-0.1219,-0.122,-0.1218,-0.1221,-0.1189,-0.1189,-0.1189,0,0,-0.1405,-0.1387,-0.1383,-0.1361,-0.1347,-0.1339,-0.1317,-0.131,-0.1303,-0.1276,-0.1268,-0.1254,-0.1235,-0.123,-0.1227,-0.122,-0.1228,-0.1221,-0.1223,-0.1222,-0.122,-0.1223,-0.1226,-0.119,-0.119,-0.119,0,0,-0.1426,-0.1411,-0.1408,-0.1395,-0.1374,-0.1358,-0.1357,-0.1332,-0.1322,-0.1314,-0.1293,-0.1285,-0.1266,-0.1253,-0.1244,-0.126,-0.1245,-0.1256,-0.1273,-0.1272,-0.1274,-0.1276,-0.1282,-0.1285,-0.1257,-0.1257,-0.1257,0,-0.1445,-0.1432,-0.1409,-0.1402,-0.1393,-0.1368,-0.1365,-0.1353,-0.133,-0.1324,-0.1316,-0.1292,-0.1277,-0.1269,-0.1273,-0.1266,-0.1265,-0.1259,-0.1276,-0.1278,-0.1279,-0.1285,-0.1287,-0.1259,-0.1259,-0.1259,-0.1258,0,-0.1457,-0.1448,-0.1449,-0.1427,-0.1418,-0.1413,-0.1389,-0.1383,-0.1369,-0.1353,-0.1345,-0.1326,-0.131,-0.1307,-0.1293,-0.1297,-0.1293,-0.128,-0.1266,-0.1284,-0.1289,-0.1291,-0.1261,-0.1261,-0.126,-0.126,0,0,-0.1497,-0.1463,-0.1463,-0.1453,-0.1428,-0.1421,-0.1415,-0.1399,-0.1394,-0.1379,-0.1374,-0.1358,-0.1347,-0.1336,-0.132,-0.1319,-0.1333,-0.1307,-0.1306,-0.1313,-0.1337,-0.1347,-0.135,-0.1323,-0.1323,-0.1323,-0.1339,0,-0.1515,-0.1503,-0.1482,-0.1477,-0.1469,-0.1444,-0.1439,-0.1424,-0.1409,-0.14,-0.1383,-0.1373,-0.1358,-0.1352,-0.1349,-0.1332,-0.1338,-0.1331,-0.1318,-0.1318,-0.1324,-0.1352,-0.1363,-0.1378,-0.134,-0.1341,-0.1341,0,-0.1533,-0.1519,-0.1514,-0.1489,-0.1485,-0.1481,-0.1465,-0.1456,-0.1438,-0.1427,-0.1416,-0.1398,-0.1391,-0.1377,-0.1367,-0.1363,-0.1356,-0.1347,-0.1347,-0.1345,-0.1331,-0.1352,-0.1383,-0.1385,-0.1343,-0.1343,-0.1343,0,-0.1564,-0.1543,-0.1537,-0.1529,-0.1501,-0.1499,-0.1487,-0.1468,-0.1459,-0.1445,-0.144,-0.1425,-0.1417,-0.1406,-0.1385,-0.1377,-0.1377,-0.1362,-0.1368,-0.1369,-0.137,-0.137,-0.1401,-0.1365,-0.1365,-0.1365,-0.1365,0,-0.1585,-0.1583,-0.1551,-0.1547,-0.1544,-0.1519,-0.1517,-0.1503,-0.1486,-0.1479,-0.1457,-0.1451,-0.1424,-0.1415,-0.1398,-0.1392,-0.1389,-0.138,-0.1376,-0.1382,-0.1383,-0.1378,-0.1377,-0.1365,-0.1365,-0.1365,-0.1365,0,-0.1619,-0.1597,-0.1589,-0.1563,-0.1556,-0.1555,-0.1532,-0.1528,-0.1512,-0.1503,-0.15,-0.1475,-0.1463,-0.1441,-0.1423,-0.1411,-0.1409,-0.1402,-0.1416,-0.1413,-0.1421,-0.1421,-0.145,-0.1452,-0.1415,-0.1415,-0.1415,0,-0.1635,-0.1632,-0.1605,-0.1599,-0.1588,-0.1579,-0.157,-0.1546,-0.1538,-0.1517,-0.1515,-0.1502,-0.1489,-0.1472,-0.1452,-0.1438,-0.143,-0.1441,-0.1427,-0.1434,-0.143,-0.1431,-0.1431,-0.1444,-0.1444,-0.1445,-0.1445,0,-0.1665,-0.1654,-0.1643,-0.1628,-0.1618,-0.1605,-0.1591,-0.1587,-0.156,-0.1552,-0.1539,-0.153,-0.1512,-0.1498,-0.1481,-0.1469,-0.1453,-0.1449,-0.145,-0.1457,-0.1466,-0.1462,-0.1424,-0.1449,-0.1449,-0.1448,-0.1448,-0.1448,-0.169,-0.1687,-0.1668,-0.1656,-0.1642,-0.163,-0.1624,-0.1607,-0.1597,-0.158,-0.1566,-0.1555,-0.1536,-0.1512,-0.15,-0.1491,-0.1483,-0.1484,-0.1485,-0.1486,-0.1488,-0.1467,-0.1488,-0.1488,-0.1487,-0.1487,-0.1487,0,-0.1719,-0.1706,-0.1695,-0.1676,-0.1666,-0.1652,-0.1635,-0.1628,-0.1619,-0.1603,-0.1591,-0.1577,-0.1564,-0.1543,-0.1528,-0.1525,-0.1517,-0.1522,-0.1522,-0.152,-0.1496,-0.1497,-0.1528,-0.1528,-0.1528,-0.1528,-0.1528,-0.1528,-0.1734,-0.1728,-0.1715,-0.1702,-0.1688,-0.1677,-0.1669,-0.1657,-0.1644,-0.1629,-0.1618,-0.1604,-0.1586,-0.157,-0.1557,-0.1551,-0.1547,-0.1555,-0.1546,-0.1525,-0.1521,-0.1518,-0.1518,-0.1554,-0.1554,-0.1571,-0.1571,-0.1571]},{"header":{"parameterUnit":"m.s-1","parameterCategory":1,"la1":30.2991,"la2":30.254,"lo1":-89.0895,"lo2":-89.0444,"dy":0.0017,"dx":0.0017,"nx":28,"ny":28,"refTime":"2023-07-28T03:00:00:Z","depth":0,"parameterNumber":3,"parameterNumberName":"V-component_of_WINDS"},"data":[0,0,0,0,0,0,0,0,0,0,0,0,0,0,0,0,0,0,0,0,0,0,0,0,0,0,0,0,0,0,0,0,0,0,0,0,0,0,0,0,0,0,0,0,0,0,0,0,0,0,0,0,0,0,0,0,0,0,0.5865,0.5864,0,0.5819,0.5819,0.5818,0.5767,0.5766,0.5765,0.5764,0.5717,0.5716,0.5716,0,0,0,0,0,0,0,0,0,0,0,0,0,0.5906,0.5905,0.5865,0.5864,0.5864,0.5819,0.5819,0.5818,0.5767,0.5766,0.5765,0.5764,0.5717,0.5716,0.5716,0,0,0,0,0,0,0,0,0,0,0,0,0,0.5877,0.5905,0.5865,0.5833,0.5829,0.582,0.5819,0.5818,0.5767,0.5766,0.5765,0.5764,0.5717,0.5717,0.5716,0.5734,0,0,0.5713,0.5713,0,0,0,0,0,0,0,0,0.5879,0.5875,0.5838,0.5835,0.5831,0.5797,0.5816,0.579,0.5767,0.5791,0.5764,0.5763,0.5745,0.5741,0.5735,0.5731,0.5729,0.5713,0.5713,0.5712,0.5712,0,0,0,0,0,0,0,0.5881,0.5877,0.5847,0.5838,0.5833,0.582,0.5815,0.5811,0.5775,0.5788,0.5785,0.578,0.5742,0.5736,0.5734,0.5729,0.5713,0.5712,0.5712,0.5712,0.5736,0.5737,0,0,0,0,0,0,0.5888,0.5879,0.5848,0.5845,0.5852,0.582,0.5814,0.5809,0.5774,0.5768,0.5781,0.5778,0.5738,0.5735,0.5732,0.575,0.5712,0.5711,0.5711,0.5735,0.5736,0.5737,0,0,0,0,0,0,0.5889,0.5885,0.585,0.5861,0.5856,0.5821,0.5816,0.5809,0.5803,0.5769,0.5762,0.5782,0.5737,0.5733,0.5733,0.5748,0.5711,0.571,0.5733,0.5735,0.5737,0.5786,0,0,0,0,0,0,0.589,0.5886,0.5893,0.5862,0.5855,0.5853,0.5817,0.5809,0.5802,0.5797,0.5767,0.5761,0.5736,0.5735,0.5733,0.5746,0.571,0.5732,0.5734,0.5736,0.5783,0.579,0.5795,0,0,0,0,0,0.5892,0.5909,0.5894,0.589,0.5863,0.5854,0.585,0.5821,0.5803,0.5809,0.5787,0.5762,0.5747,0.5735,0.5732,0.5746,0.5731,0.5733,0.5736,0.5781,0.5788,0.5795,0,0,0,0,0,0,0.5942,0.5904,0.5887,0.5894,0.5878,0.5845,0.5852,0.583,0.5818,0.5814,0.5778,0.5771,0.5776,0.576,0.5749,0.576,0.5735,0.5737,0.577,0.5777,0.5783,0.5786,0.5709,0,0,0,0,0,0.5955,0.595,0.5917,0.5927,0.5919,0.5888,0.5882,0.5861,0.5842,0.5835,0.5813,0.5795,0.5786,0.5781,0.5771,0.5781,0.5773,0.5788,0.5794,0.5799,0.5801,0.5805,0.5811,0.5746,0.5746,0.5746,0,0,0.5979,0.5958,0.5958,0.5937,0.5921,0.5917,0.5882,0.5879,0.5876,0.5834,0.5833,0.5816,0.5794,0.5799,0.58,0.5787,0.5818,0.5802,0.5807,0.5806,0.5808,0.5814,0.582,0.5747,0.5747,0.5747,0,0,0.6023,0.6006,0.6012,0.5998,0.5975,0.5953,0.5955,0.5925,0.5913,0.5911,0.5879,0.5874,0.586,0.5845,0.5835,0.5872,0.5849,0.587,0.59,0.5904,0.5909,0.5913,0.5926,0.5931,0.5872,0.5872,0.5872,0,0.6056,0.6049,0.6018,0.6017,0.6009,0.5971,0.5977,0.5964,0.5939,0.5933,0.5918,0.5899,0.5881,0.5882,0.5891,0.5885,0.5885,0.5873,0.5911,0.5915,0.5919,0.593,0.5935,0.5875,0.5875,0.5875,0.5874,0,0.6092,0.6087,0.6095,0.6072,0.6064,0.6066,0.6035,0.6031,0.601,0.599,0.5988,0.5966,0.595,0.5948,0.5928,0.5946,0.5938,0.5918,0.5891,0.5928,0.5938,0.5942,0.5879,0.5878,0.5877,0.5877,0,0,0.6165,0.6125,0.6128,0.6117,0.6088,0.6084,0.6085,0.6069,0.6066,0.605,0.6049,0.6037,0.6017,0.6007,0.5985,0.5988,0.6018,0.5967,0.5966,0.5976,0.6034,0.605,0.6055,0.6002,0.6002,0.6003,0.6036,0,0.6203,0.6202,0.6173,0.618,0.6175,0.6139,0.6139,0.6121,0.6102,0.6095,0.6074,0.6066,0.6041,0.6034,0.6036,0.6014,0.6029,0.6011,0.5999,0.5999,0.6006,0.6061,0.6077,0.6109,0.604,0.6041,0.6041,0,0.6247,0.6233,0.6239,0.621,0.6207,0.6208,0.6191,0.6185,0.6164,0.615,0.6138,0.6112,0.611,0.6085,0.6081,0.6069,0.6063,0.6051,0.6051,0.6049,0.6022,0.6059,0.6119,0.6124,0.6047,0.6047,0.6046,0,0.6299,0.6282,0.6284,0.6275,0.6242,0.6243,0.6229,0.6206,0.6199,0.6184,0.6179,0.6164,0.6155,0.6144,0.6115,0.61,0.6114,0.6087,0.6101,0.6102,0.6105,0.6105,0.6165,0.6102,0.6102,0.6102,0.6102,0,0.6344,0.6349,0.6307,0.6307,0.6312,0.6279,0.6283,0.6266,0.6246,0.6242,0.621,0.6207,0.6169,0.6162,0.6139,0.6138,0.6135,0.6123,0.6117,0.6125,0.6127,0.612,0.6117,0.6103,0.6103,0.6103,0.6103,0,0.6403,0.6375,0.6374,0.6342,0.6334,0.6339,0.6311,0.631,0.6289,0.6284,0.6281,0.6248,0.6237,0.6207,0.6189,0.6174,0.6179,0.6168,0.6186,0.6182,0.6198,0.6196,0.6254,0.626,0.6195,0.6196,0.6196,0,0.6433,0.6436,0.6404,0.64,0.6387,0.638,0.6372,0.6339,0.6332,0.6308,0.631,0.6296,0.6284,0.6268,0.6242,0.6228,0.6215,0.6237,0.6213,0.6222,0.6215,0.6215,0.6215,0.6242,0.6243,0.6243,0.6244,0,0.6489,0.6475,0.6465,0.645,0.6442,0.6428,0.6413,0.6411,0.6374,0.6367,0.6356,0.6347,0.6328,0.6315,0.6296,0.628,0.6256,0.6252,0.6254,0.6263,0.6273,0.6267,0.62,0.625,0.625,0.6249,0.6249,0.6249,0.6534,0.6535,0.6512,0.6502,0.6487,0.6474,0.6471,0.6449,0.644,0.6422,0.6403,0.6394,0.6371,0.6344,0.633,0.6322,0.6309,0.6313,0.6313,0.6315,0.6318,0.6275,0.6318,0.6318,0.6318,0.6318,0.6317,0,0.6588,0.6572,0.6563,0.6542,0.6534,0.6512,0.6494,0.6488,0.648,0.6462,0.6451,0.6437,0.6424,0.6397,0.6381,0.638,0.6368,0.6376,0.6376,0.6373,0.6331,0.633,0.6386,0.6386,0.6386,0.6386,0.6386,0.6386,0.6615,0.6615,0.6598,0.6589,0.6573,0.6564,0.6555,0.6542,0.6527,0.6514,0.6503,0.6486,0.6463,0.6445,0.6432,0.6424,0.642,0.6432,0.6421,0.6382,0.6376,0.6369,0.6369,0.6431,0.6431,0.6462,0.6463,0.6463]}]]